TimeEDT,TemperatureF,Dew PointF,Humidity,Sea Level PressureIn,VisibilityMPH,Wind Direction,Wind SpeedMPH,Gust SpeedMPH,PrecipitationIn,Events,Conditions,WindDirDegrees,DateUTC
12:15 AM,64.4,57.2,77,29.64,10.0,South,12.7,20.7,N/A,Rain,Light Rain,180,2013-09-22 04:15:00
12:35 AM,63.5,58.1,83,29.64,10.0,South,10.4,16.1,N/A,Rain,Rain,170,2013-09-22 04:35:00
12:55 AM,63.3,59.0,86,29.63,10.0,South,11.5,18.4,N/A,,Drizzle,180,2013-09-22 04:55:00
1:15 AM,62.6,58.6,87,29.62,7.0,SSE,12.7,-,N/A,Rain,Light Rain,160,2013-09-22 05:15:00
1:35 AM,62.4,59.0,89,29.61,7.0,South,9.2,-,N/A,Rain,Light Rain,170,2013-09-22 05:35:00
1:55 AM,62.1,59.0,90,29.61,7.0,South,8.1,-,N/A,Rain,Light Rain,180,2013-09-22 05:55:00
2:15 AM,62.2,59.0,89,29.60,7.0,South,8.1,-,N/A,Rain,Rain,180,2013-09-22 06:15:00
2:35 AM,62.6,59.2,89,29.58,5.0,South,6.9,-,N/A,Rain,Rain,170,2013-09-22 06:35:00
2:55 AM,62.6,59.2,89,29.57,7.0,SSE,5.8,-,N/A,Rain,Rain,160,2013-09-22 06:55:00
3:35 AM,59.5,56.5,90,29.58,3.0,Calm,Calm,-,N/A,Rain,Heavy Rain,0,2013-09-22 07:35:00
3:55 AM,59.4,56.3,90,29.60,7.0,Calm,Calm,-,N/A,Rain,Rain,0,2013-09-22 07:55:00
4:15 AM,59.0,56.3,91,29.61,5.0,Calm,Calm,-,N/A,Rain,Rain,0,2013-09-22 08:15:00
4:35 AM,59.4,56.3,90,29.60,5.0,Calm,Calm,-,N/A,Rain,Rain,0,2013-09-22 08:35:00
4:55 AM,59.4,56.7,91,29.61,5.0,Calm,Calm,-,N/A,Rain,Light Rain,0,2013-09-22 08:55:00
5:15 AM,59.2,56.5,91,29.61,1.2,Calm,Calm,-,N/A,,Light Drizzle,0,2013-09-22 09:15:00
5:35 AM,58.8,56.1,91,29.61,1.8,South,3.5,-,N/A,Rain,Light Rain,180,2013-09-22 09:35:00
5:55 AM,58.5,55.8,91,29.62,10.0,Calm,Calm,-,N/A,Rain,Rain,0,2013-09-22 09:55:00
6:15 AM,58.3,55.6,91,29.63,10.0,Calm,Calm,-,N/A,,Overcast,0,2013-09-22 10:15:00
6:35 AM,58.1,55.4,91,29.63,10.0,Calm,Calm,-,N/A,,Overcast,0,2013-09-22 10:35:00
6:55 AM,58.1,55.0,90,29.63,10.0,Calm,Calm,-,N/A,,Overcast,0,2013-09-22 10:55:00
7:15 AM,58.1,54.9,89,29.62,10.0,Calm,Calm,-,N/A,,Overcast,0,2013-09-22 11:15:00
7:35 AM,58.1,55.4,91,29.62,10.0,Calm,Calm,-,N/A,,Overcast,0,2013-09-22 11:35:00
7:55 AM,58.3,55.6,91,29.64,5.0,WNW,3.5,-,N/A,,Overcast,290,2013-09-22 11:55:00
8:15 AM,56.3,52.9,88,29.64,5.0,West,5.8,-,N/A,,Light Drizzle,280,2013-09-22 12:15:00
8:35 AM,56.5,53.1,88,29.65,10.0,Calm,Calm,-,N/A,,Overcast,0,2013-09-22 12:35:00
8:55 AM,57.6,53.4,86,29.65,10.0,Calm,Calm,-,N/A,,Overcast,0,2013-09-22 12:55:00
9:15 AM,58.8,53.2,82,29.65,10.0,Calm,Calm,-,N/A,,Overcast,0,2013-09-22 13:15:00
9:35 AM,58.3,53.1,83,29.66,10.0,NW,10.4,-,N/A,,Overcast,310,2013-09-22 13:35:00
9:55 AM,55.2,50.5,84,29.66,10.0,West,13.8,18.4,N/A,Rain,Light Rain,280,2013-09-22 13:55:00
10:15 AM,55.6,50.4,83,29.66,10.0,West,15.0,20.7,N/A,,Overcast,280,2013-09-22 14:15:00
10:35 AM,57.4,50.4,77,29.67,10.0,West,11.5,20.7,N/A,,Overcast,270,2013-09-22 14:35:00
10:55 AM,58.3,50.9,76,29.67,10.0,West,10.4,18.4,N/A,,Overcast,280,2013-09-22 14:55:00
11:15 AM,58.5,49.8,73,29.68,10.0,West,13.8,23.0,N/A,,Mostly Cloudy,270,2013-09-22 15:15:00
11:35 AM,59.2,49.3,70,29.68,10.0,West,12.7,20.7,N/A,,Mostly Cloudy,280,2013-09-22 15:35:00
11:55 AM,58.1,48.7,71,29.68,10.0,West,17.3,24.2,N/A,,Scattered Clouds,280,2013-09-22 15:55:00
12:15 PM,58.5,49.8,73,29.68,10.0,West,13.8,26.5,N/A,,Mostly Cloudy,270,2013-09-22 16:15:00
12:35 PM,58.1,47.7,68,29.68,10.0,West,19.6,26.5,N/A,,Mostly Cloudy,270,2013-09-22 16:35:00
12:55 PM,60.3,48.6,65,29.69,10.0,West,16.1,24.2,N/A,,Mostly Cloudy,280,2013-09-22 16:55:00
1:15 PM,58.1,47.3,67,29.70,10.0,West,12.7,21.9,N/A,,Overcast,270,2013-09-22 17:15:00
1:35 PM,57.2,46.4,67,29.71,10.0,West,12.7,23.0,N/A,,Overcast,270,2013-09-22 17:35:00
1:55 PM,56.8,46.2,68,29.71,10.0,West,15.0,19.6,N/A,,Overcast,280,2013-09-22 17:55:00
2:15 PM,56.3,45.9,68,29.72,10.0,West,13.8,23.0,N/A,,Overcast,280,2013-09-22 18:15:00
2:35 PM,54.7,45.1,70,29.72,10.0,West,11.5,19.6,N/A,,Overcast,280,2013-09-22 18:35:00
2:55 PM,55.0,45.0,69,29.73,10.0,NW,13.8,18.4,N/A,,Overcast,310,2013-09-22 18:55:00
3:15 PM,54.5,44.2,68,29.74,10.0,WNW,10.4,16.1,N/A,,Overcast,300,2013-09-22 19:15:00
3:35 PM,54.5,43.9,67,29.74,10.0,WNW,13.8,17.3,N/A,,Overcast,290,2013-09-22 19:35:00
3:55 PM,54.5,43.7,67,29.74,10.0,NW,15.0,-,N/A,,Overcast,310,2013-09-22 19:55:00
4:15 PM,54.5,42.6,64,29.75,10.0,WNW,13.8,25.3,N/A,,Overcast,300,2013-09-22 20:15:00
4:35 PM,53.4,41.9,65,29.75,10.0,WNW,9.2,18.4,N/A,,Overcast,290,2013-09-22 20:35:00
4:55 PM,53.6,42.8,67,29.76,10.0,West,11.5,17.3,N/A,,Overcast,280,2013-09-22 20:55:00
5:15 PM,52.7,41.7,66,29.76,10.0,WNW,12.7,23.0,N/A,,Overcast,290,2013-09-22 21:15:00
5:35 PM,53.4,41.4,64,29.77,10.0,West,11.5,-,N/A,,Overcast,280,2013-09-22 21:35:00
5:55 PM,52.7,41.4,65,29.78,10.0,WNW,10.4,18.4,N/A,,Overcast,290,2013-09-22 21:55:00
6:15 PM,51.8,41.9,69,29.79,10.0,West,11.5,-,N/A,,Mostly Cloudy,280,2013-09-22 22:15:00
6:35 PM,50.2,42.3,74,29.79,10.0,WNW,11.5,-,N/A,,Overcast,290,2013-09-22 22:35:00
6:55 PM,49.8,42.1,75,29.80,10.0,West,6.9,10.4,N/A,,Overcast,280,2013-09-22 22:55:00
7:15 PM,49.1,41.2,74,29.81,10.0,WNW,10.4,16.1,N/A,,Mostly Cloudy,290,2013-09-22 23:15:00
7:35 PM,49.1,41.2,74,29.82,10.0,West,5.8,-,N/A,,Overcast,270,2013-09-22 23:35:00
7:55 PM,48.4,41.4,77,29.82,10.0,West,5.8,-,N/A,,Overcast,280,2013-09-22 23:55:00
8:15 PM,48.4,41.5,77,29.83,10.0,West,3.5,-,N/A,,Overcast,280,2013-09-23 00:15:00
8:35 PM,48.4,41.9,78,29.84,10.0,West,5.8,-,N/A,,Overcast,280,2013-09-23 00:35:00
8:55 PM,48.2,41.9,79,29.84,10.0,WNW,6.9,-,N/A,,Overcast,300,2013-09-23 00:55:00
9:15 PM,48.7,40.8,74,29.84,10.0,NW,3.5,-,N/A,,Overcast,310,2013-09-23 01:15:00
9:35 PM,48.4,40.5,74,29.84,10.0,WNW,5.8,-,N/A,,Overcast,290,2013-09-23 01:35:00
9:55 PM,47.8,41.0,77,29.85,7.0,WNW,6.9,-,N/A,Rain,Rain,300,2013-09-23 01:55:00
10:15 PM,47.5,41.5,80,29.85,10.0,NW,10.4,-,N/A,,Overcast,310,2013-09-23 02:15:00
10:35 PM,47.3,41.0,79,29.85,10.0,WNW,5.8,-,N/A,,Overcast,300,2013-09-23 02:35:00
10:55 PM,46.6,39.7,77,29.85,10.0,WNW,8.1,17.3,N/A,,Mostly Cloudy,300,2013-09-23 02:55:00
11:15 PM,46.9,39.9,77,29.85,10.0,WNW,9.2,17.3,N/A,,Overcast,290,2013-09-23 03:15:00
11:35 PM,46.6,39.7,77,29.86,10.0,WNW,9.2,16.1,N/A,,Drizzle,300,2013-09-23 03:35:00
11:55 PM,45.7,40.5,82,29.86,10.0,WNW,6.9,-,N/A,,Drizzle,300,2013-09-23 03:55:00